Tracking 19638 objects as of 20-Apr-2019
HD Live streaming from Space Station
objects crossing your sky now

THORAD AGENA D DEB

Track THORAD AGENA D DEB now!
10-day predictions


NORAD ID: 4751
Int'l Code: 1970-025CZ
Perigee: 960.6 km
Apogee: 969.5 km
Inclination: 100.1 °
Period: 104.2 minutes
Semi major axis: 7336 km
RCS: 0.017 m2 (small)
Launch date: April 8, 1970
Source: United States (US)
Launch site: AIR FORCE WESTERN TEST RANGE (AFWTR)

Note: This is SATELLITE DEBRIS
aabbcc
Your satellite tracking list
Your tracking list is empty




NASA's NSSDC Master Catalog

Two Line Element Set (TLE):
1  4751U 70025CZ  19109.62242802  .00000353  00000-0  37815-3 0  9995
2  4751 100.1404 332.2522 0006034 353.8635  72.3247 13.81687062444205
Source of the keplerian elements: AFSPC